Regional Weather Roundup
Issued by NWS

Home | Current Version | Previous Version | Text Only | Print | Product List | Glossary Off
Versions: 1 2 3 4 5 6 7 8 9 10 11 12 13 14 15 16 17 18 19 20 21 22 23 24 25 26 27 28 29 30 31 32 33 34 35 36 37 38 39 40 41 42 43 44 45 46 47 48 49 50

000
ASUS43 KFSD 280510
RWRSD

WEATHER ROUNDUP FOR SOUTH DAKOTA
NATIONAL WEATHER SERVICE SIOUX FALLS SD
1100 PM CST THU NOV 27 2014

NOTE: "FAIR" INDICATES FEW OR NO CLOUDS BELOW 12,000 FEET WITH NO
SIGNIFICANT WEATHER AND/OR OBSTRUCTIONS TO VISIBILITY.


SDZ001>005-009-010-012>017-280600-
NORTHWEST AND NORTH CENTRAL SOUTH DAKOTA

CITY           SKY/WX    TMP DP  RH WIND       PRES   REMARKS
BUFFALO          N/A     27  22  81 CALM      29.71F
FAITH            N/A     22  17  81 S13       29.81F WCI  10
MOBRIDGE       PTCLDY    15  10  80 E12       29.85F WCI   2
$$

SDZ012>016-024>037-041>051-057-063-072>074-280600-
SOUTHWEST AND SOUTH CENTRAL SOUTH DAKOTA

CITY           SKY/WX    TMP DP  RH WIND       PRES   REMARKS
RAPID CTY ARPT CLEAR     37  27  67 CALM      29.85F
PIERRE         CLEAR     20  16  84 SE3       29.85F
CUSTER         PTCLDY    44  24  45 NW5       29.92F
ELLSWORTH AFB  PTCLDY    39  29  65 W9        29.84F
PHILIP         CLEAR     24  20  84 W6        29.85F WCI  17
PINE RIDGE     PTCLDY    42  30  62 W5        29.91F
SPEARFISH      FAIR      54  28  37 SW15G23   29.84F
WINNER         FAIR      39  24  55 SW13      29.85S
$$

SDZ004>011-016>023-039-040-280600-
NORTHEAST SOUTH DAKOTA

CITY           SKY/WX    TMP DP  RH WIND       PRES   REMARKS
ABERDEEN       MOCLDY    18  11  74 SE8       29.98F WCI   8
WATERTOWN      CLOUDY    14   7  73 SE20G26   29.96F WCI  -3
SISSETON         N/A      7   4  87 S16       30.06F WCI -11
$$

SDZ017-020-022-023-036>040-048>070-280600-
SOUTHEAST SOUTH DAKOTA

CITY           SKY/WX    TMP DP  RH WIND       PRES   REMARKS
SIOUX FALLS    CLOUDY    17  10  74 SE9       30.06F WCI   6
HURON          MOCLDY    18  12  77 S14       29.95F WCI   4
CHAMBERLAIN    PTCLDY    28  19  70 SE6       29.87F WCI  21
MITCHELL       CLOUDY    22  15  75 SE16      29.98F WCI   8
YANKTON        CLOUDY    23  12  63 SE18      30.03F WCI   9
$$

ABBREVIATIONS USED IN REMARKS
   TC - TEMPERATURE IN CELSIUS
  WCI - WIND CHILL INDEX
   HX - HEAT INDEX
  VSB - VISIBILITY




USA.gov is the U.S. government's official web portal to all federal, state and local government web resources and services.